• In Belarus
  • List of Countries
  • For 7 days
  • Water Temperature
  • Weather Map
  • Weather Widgets
  • user-avatar
    Login

    Hourly Weather Tiskino

    Today, 1 June, Monday

    Time Temperature Precipitation Wind Pressure Humidity
    00:00 +7°C° 0 mm 2 mps 749 mmHg 82%
    01:00 +7°C° 0 mm 2 mps 749 mmHg 84%
    02:00 +6°C° 0 mm 2 mps 749 mmHg 86%
    03:00 +6°C° 0 mm 2 mps 749 mmHg 87%
    04:00 +7°C° 0 mm 3 mps 749 mmHg 82%
    05:00 +7°C° 0 mm 3 mps 750 mmHg 76%
    06:00 +9°C° 0 mm 2 mps 750 mmHg 72%
    07:00 +10°C° 0 mm 3 mps 750 mmHg 66%
    08:00 +11°C° 0 mm 3 mps 750 mmHg 59%
    09:00 +13°C° 0 mm 4 mps 750 mmHg 52%
    10:00 +14°C° 0 mm 3 mps 750 mmHg 49%
    11:00 +16°C° 0 mm 3 mps 751 mmHg 46%
    12:00 +17°C° 0 mm 3 mps 751 mmHg 42%
    13:00 +17°C° 0 mm 3 mps 751 mmHg 41%
    14:00 +17°C° 0 mm 2 mps 750 mmHg 40%
    15:00 +18°C° 0 mm 2 mps 750 mmHg 39%
    16:00 +17°C° 0 mm 2 mps 750 mmHg 43%
    17:00 +18°C° 0 mm 1 mps 751 mmHg 47%
    18:00 +16°C° 0 mm 1 mps 751 mmHg 50%
    19:00 +15°C° 0 mm 1 mps 750 mmHg 55%
    20:00 +13°C° 0 mm 1 mps 750 mmHg 60%
    21:00 +12°C° 0 mm 2 mps 750 mmHg 65%
    22:00 +10°C° 0.9 mm 2 mps 750 mmHg 73%
    23:00 +10°C° 0.9 mm 2 mps 750 mmHg 81%

    Tomorrow, 2 June, Tuesday

    Time Temperature Precipitation Wind Pressure Humidity
    00:00 +9°C° 0.9 mm 2 mps 749 mmHg 89%
    01:00 +9°C° 0.9 mm 2 mps 749 mmHg 90%
    02:00 +8°C° 0.9 mm 3 mps 748 mmHg 92%
    03:00 +8°C° 0.9 mm 3 mps 747 mmHg 93%
    04:00 +8°C° 1 mm 2 mps 747 mmHg 94%
    05:00 +8°C° 1 mm 2 mps 747 mmHg 95%
    06:00 +8°C° 1 mm 2 mps 747 mmHg 96%
    07:00 +8°C° 0.7 mm 2 mps 747 mmHg 96%
    08:00 +9°C° 0.7 mm 2 mps 746 mmHg 95%
    09:00 +9°C° 0.7 mm 2 mps 746 mmHg 95%
    10:00 +9°C° 0.6 mm 2 mps 747 mmHg 94%
    11:00 +9°C° 0.6 mm 2 mps 747 mmHg 94%
    12:00 +9°C° 0.6 mm 2 mps 748 mmHg 93%
    13:00 +9°C° 0.2 mm 3 mps 748 mmHg 93%
    14:00 +9°C° 0.2 mm 3 mps 748 mmHg 93%
    15:00 +8°C° 0.2 mm 4 mps 749 mmHg 93%
    16:00 +8°C° 0.1 mm 4 mps 749 mmHg 92%
    17:00 +9°C° 0.1 mm 3 mps 750 mmHg 92%
    18:00 +9°C° 0.1 mm 3 mps 750 mmHg 91%
    19:00 +8°C° 0 mm 3 mps 751 mmHg 92%
    20:00 +8°C° 0 mm 2 mps 751 mmHg 93%
    21:00 +8°C° 0 mm 1 mps 751 mmHg 94%
    22:00 +7°C° 0 mm 1 mps 751 mmHg 94%
    23:00 +7°C° 0 mm 1 mps 752 mmHg 94%

    Day after tomorrow, 3 June, Wednesday

    Time Temperature Precipitation Wind Pressure Humidity
    00:00 +5°C° 0 mm 2 mps 752 mmHg 95%
    01:00 +5°C° 0 mm 2 mps 752 mmHg 95%
    02:00 +6°C° 0 mm 1 mps 752 mmHg 95%
    03:00 +5°C° 0 mm 1 mps 752 mmHg 95%
    04:00 +6°C° 0 mm 1 mps 752 mmHg 92%
    05:00 +7°C° 0 mm 1 mps 752 mmHg 89%
    06:00 +7°C° 0 mm 0 mps 753 mmHg 86%
    07:00 +9°C° 0.1 mm 1 mps 752 mmHg 81%
    08:00 +11°C° 0.1 mm 1 mps 752 mmHg 76%
    09:00 +12°C° 0.1 mm 2 mps 752 mmHg 71%
    10:00 +10°C° 0.8 mm 2 mps 752 mmHg 77%
    11:00 +9°C° 0.8 mm 2 mps 752 mmHg 84%
    12:00 +8°C° 0.8 mm 2 mps 751 mmHg 90%
    13:00 +9°C° 0.1 mm 2 mps 751 mmHg 82%
    14:00 +10°C° 0.1 mm 2 mps 751 mmHg 74%
    15:00 +12°C° 0.1 mm 3 mps 751 mmHg 66%
    16:00 +11°C° 0.2 mm 3 mps 751 mmHg 68%
    17:00 +11°C° 0.2 mm 4 mps 752 mmHg 70%
    18:00 +11°C° 0.2 mm 4 mps 752 mmHg 71%
    19:00 +8°C° 0.1 mm 4 mps 752 mmHg 77%
    20:00 +8°C° 0.1 mm 3 mps 752 mmHg 82%
    21:00 +7°C° 0.1 mm 2 mps 752 mmHg 87%
    22:00 +6°C° 0 mm 2 mps 752 mmHg 88%
    23:00 +4°C° 0 mm 3 mps 752 mmHg 90%

    4 June, Thursday

    Time Temperature Precipitation Wind Pressure Humidity
    00:00 +3°C° 0 mm 3 mps 752 mmHg 91%
    01:00 +4°C° 0 mm 2 mps 752 mmHg 92%
    02:00 +3°C° 0 mm 2 mps 752 mmHg 94%
    03:00 +2°C° 0 mm 2 mps 752 mmHg 95%
    04:00 +2°C° 0 mm 3 mps 752 mmHg 93%
    05:00 +3°C° 0 mm 3 mps 752 mmHg 91%
    06:00 +4°C° 0 mm 3 mps 752 mmHg 90%
    07:00 +5°C° 0.1 mm 4 mps 752 mmHg 88%
    08:00 +6°C° 0.1 mm 4 mps 752 mmHg 86%
    09:00 +7°C° 0.1 mm 4 mps 752 mmHg 84%
    10:00 +7°C° 0.4 mm 4 mps 752 mmHg 83%
    11:00 +8°C° 0.4 mm 5 mps 752 mmHg 81%
    12:00 +8°C° 0.4 mm 5 mps 752 mmHg 80%
    13:00 +9°C° 0.3 mm 5 mps 752 mmHg 76%
    14:00 +10°C° 0.3 mm 5 mps 752 mmHg 72%
    15:00 +10°C° 0.3 mm 5 mps 752 mmHg 68%
    16:00 +10°C° 0.8 mm 5 mps 752 mmHg 73%
    17:00 +9°C° 0.8 mm 5 mps 752 mmHg 78%
    18:00 +10°C° 0.8 mm 4 mps 752 mmHg 83%
    19:00 +8°C° 1.4 mm 4 mps 752 mmHg 87%
    20:00 +9°C° 1.4 mm 3 mps 752 mmHg 91%
    21:00 +8°C° 1.4 mm 3 mps 751 mmHg 95%
    22:00 +8°C° 0.7 mm 2 mps 751 mmHg 95%
    23:00 +8°C° 0.7 mm 2 mps 751 mmHg 96%

    5 June, Friday

    Time Temperature Precipitation Wind Pressure Humidity
    00:00 +9°C° 0.7 mm 1 mps 751 mmHg 96%
    01:00 +7°C° 0 mm 2 mps 751 mmHg 94%
    02:00 +7°C° 0 mm 3 mps 751 mmHg 93%
    03:00 +6°C° 0 mm 4 mps 751 mmHg 92%
    04:00 +6°C° 0 mm 4 mps 751 mmHg 91%
    05:00 +7°C° 0 mm 4 mps 751 mmHg 90%
    06:00 +7°C° 0 mm 4 mps 751 mmHg 89%
    07:00 +9°C° 0 mm 5 mps 751 mmHg 82%
    08:00 +10°C° 0 mm 5 mps 751 mmHg 76%
    09:00 +12°C° 0 mm 5 mps 751 mmHg 70%
    10:00 +12°C° 0.7 mm 5 mps 751 mmHg 74%
    11:00 +12°C° 0.7 mm 5 mps 751 mmHg 78%
    12:00 +12°C° 0.7 mm 4 mps 750 mmHg 83%
    13:00 +12°C° 1.2 mm 4 mps 750 mmHg 84%
    14:00 +12°C° 1.2 mm 3 mps 750 mmHg 86%
    15:00 +12°C° 1.2 mm 3 mps 750 mmHg 88%
    16:00 +12°C° 1.1 mm 3 mps 750 mmHg 89%
    17:00 +12°C° 1.1 mm 3 mps 750 mmHg 90%
    18:00 +12°C° 1.1 mm 3 mps 750 mmHg 91%
    19:00 +11°C° 1.2 mm 3 mps 750 mmHg 92%
    20:00 +11°C° 1.2 mm 3 mps 750 mmHg 93%
    21:00 +10°C° 1.2 mm 3 mps 750 mmHg 95%
    22:00 +10°C° 0 mm 3 mps 750 mmHg 96%
    23:00 +9°C° 0 mm 2 mps 750 mmHg 96%

    6 June, Saturday

    Time Temperature Precipitation Wind Pressure Humidity
    00:00 +8°C° 0 mm 2 mps 750 mmHg 97%
    01:00 +8°C° 0 mm 2 mps 750 mmHg 97%
    02:00 +7°C° 0 mm 2 mps 750 mmHg 98%
    03:00 +7°C° 0 mm 2 mps 750 mmHg 98%
    04:00 +8°C° 0 mm 2 mps 750 mmHg 98%
    05:00 +9°C° 0 mm 3 mps 750 mmHg 97%
    06:00 +10°C° 0 mm 3 mps 750 mmHg 97%
    07:00 +11°C° 0.4 mm 4 mps 750 mmHg 96%
    08:00 +11°C° 0.4 mm 4 mps 750 mmHg 94%
    09:00 +12°C° 0.4 mm 4 mps 750 mmHg 93%
    10:00 +13°C° 0 mm 4 mps 750 mmHg 82%
    11:00 +14°C° 0 mm 5 mps 751 mmHg 71%
    12:00 +15°C° 0 mm 5 mps 751 mmHg 61%
    13:00 +15°C° 0 mm 5 mps 751 mmHg 58%
    14:00 +17°C° 0 mm 4 mps 751 mmHg 55%
    15:00 +17°C° 0 mm 4 mps 751 mmHg 52%
    16:00 +17°C° 0 mm 4 mps 751 mmHg 51%
    17:00 +18°C° 0 mm 4 mps 752 mmHg 50%
    18:00 +18°C° 0 mm 4 mps 752 mmHg 50%
    19:00 +17°C° 0 mm 4 mps 752 mmHg 54%
    20:00 +14°C° 0 mm 3 mps 752 mmHg 59%
    21:00 +13°C° 0 mm 3 mps 752 mmHg 64%
    22:00 +12°C° 0 mm 3 mps 753 mmHg 65%
    23:00 +11°C° 0 mm 3 mps 753 mmHg 67%
    Show more